Date,TemperatureHighF,TemperatureAvgF,TemperatureLowF,DewpointHighF,DewpointAvgF,DewpointLowF,HumidityHigh,HumidityAvg,HumidityLow,PressureMaxIn,PressureMinIn,WindSpeedMaxMPH,WindSpeedAvgMPH,GustSpeedMaxMPH,PrecipitationSumIn
2013-3-1,45,41,37,30,27,24,73,57,45,0.00,40.00,19,12,26,0.00
2013-3-2,43,39,35,25,21,17,58,48,39,0.00,40.00,26,14,32,0.00
2013-3-3,39,36,33,20,17,13,53,47,39,0.00,40.00,26,19,36,0.00
2013-3-4,41,36,32,19,17,15,50,46,41,0.00,40.00,31,22,44,0.00
2013-3-5,46,38,32,30,21,17,67,51,38,0.00,40.00,24,12,32,0.00
2013-3-6,42,40,36,39,36,29,91,84,66,0.00,40.00,55,34,78,0.00
2013-3-7,49,41,35,33,27,24,89,60,38,0.00,40.00,35,24,47,0.00
2013-3-8,41,38,33,35,30,25,86,75,58,0.00,40.00,33,24,44,0.00
2013-3-9,65,46,36,28,23,19,58,43,22,0.00,40.00,22,11,28,0.00
2013-3-10,46,42,37,39,35,28,88,76,56,0.00,40.00,13,7,20,0.00
2013-3-11,52,46,42,47,42,39,90,86,72,0.00,40.00,25,11,35,0.00
2013-3-12,52,50,46,49,46,34,91,87,66,0.00,40.00,35,21,51,0.00
2013-3-13,57,43,40,37,25,-100,80,58,29,0.00,40.00,20,12,37,0.00
2013-3-14,45,38,34,20,12,-100,50,39,31,0.00,40.00,26,19,39,0.00
2013-3-15,52,42,33,35,20,11,74,42,28,0.00,40.00,23,14,38,0.00
2013-3-16,45,42,39,36,33,29,86,70,58,0.00,40.00,24,12,30,0.00
2013-3-17,43,39,35,35,26,19,89,63,40,0.00,40.00,18,11,24,0.00
2013-3-18,50,40,36,47,30,18,90,67,45,0.00,40.00,23,15,44,0.00
2013-3-19,57,46,42,46,39,24,91,79,38,0.00,40.00,25,11,36,0.00
2013-3-20,54,44,35,32,20,12,63,40,21,0.00,40.00,24,14,34,0.00
2013-3-21,44,36,32,34,22,-100,89,60,35,0.00,40.00,28,16,37,0.00
2013-3-22,44,37,31,21,16,9,53,43,34,0.00,40.00,23,16,34,0.00
2013-3-23,51,41,34,26,21,18,59,46,35,0.00,40.00,23,13,32,0.00
2013-3-24,44,40,36,25,22,19,63,49,37,0.00,40.00,11,8,16,0.00
2013-3-25,39,39,39,29,29,29,69,69,69,0.00,40.00,14,14,22,0.00
2013-3-26,54,43,36,35,30,24,90,64,34,0.00,40.00,19,11,27,0.00
2013-3-27,54,45,39,34,29,23,78,55,32,0.00,40.00,23,14,34,0.00
2013-3-28,51,44,40,31,29,27,67,56,43,0.00,40.00,23,15,31,0.00
2013-3-29,56,47,40,35,30,24,69,52,34,0.00,40.00,18,11,28,0.00
2013-3-30,65,50,40,36,31,22,83,52,23,0.00,40.00,14,8,22,0.00
2013-3-31,52,48,44,49,42,36,90,81,58,0.00,40.00,23,14,36,0.00